Location: Newark
(48.5156°N, 1.8989°W)
Time: 09:01:19
(UTC+00:00)

Vanguard 1 Rocket - Pass Details

Date: 23 November 2019
Orbit: 650 x 4226 km, 34.3° (Epoch: 10 December)

Event Time Altitude Azimuth Distance (km) Brightness Sun altitude
Rises 06:41:43 0° 246° (WSW) 3,033 9.7 -7.5°
Reaches altitude 10° 06:45:53 10° 207° (SSW) 2,387 9.5 -6.9°
Maximum altitude 06:47:15 11° 192° (SSW) 2,447 9.8 -6.7°
Drops below altitude 10° 06:48:45 10° 178° (S) 2,662 10.2 -6.5°
Sets 06:54:40 0° 145° (SE) 4,333 12.1 -5.6°
